User: anonymous   Login
Location: Armstrong Village
(14.3346°N, 120.9854°E)
Time: 04:04:21
(UTC+00:00)
Language:

Delta 7925 Rocket - Orbit

View from above orbital plane
View from above orbital plane
View from above satellite
View from above satellite

Ground track
Ground track

The orbit is defined by the following mean orbital elements,

1 24809U          26069.40072760 +.00000000 +00000-0 +13039-3 0 00004
2 24809  26.2985  71.6106 0661999 246.9292 106.0107 13.31019140    00
Epoch (UTC): 10 March 2026 09:37:02
Eccentricity: 0.0661999
inclination: 26.2985°
perigee height: 645 km
apogee height: 1641 km
right ascension of ascending node: 71.6106°
argument of perigee: 246.9292°
revolutions per day: 13.31019140
mean anomaly at epoch: 106.0107°

The dashed part of the orbit path shows where the satellite is in the earth's shadow,  

DLR